YAOGAN-24

Last updated on Mon Oct 14 2024 00:02:24 GMT+0000 (Coordinated Universal Time)

1 40310U 14072A 24287.54246985 .00003477 00000+0 50846-3 0 9994 2 40310 98.0702 51.8324 0014047 69.3011 290.9703 14.76267246533483
UTC large
Height (km)
Speed (km/s)
/
Latitude / Longitude
Inclination (degrees)
Orbital Period (minutes)
Azimuth
Elevation
Range (km)
Doppler Factor

Next 0 passes for location: London (51.5072 / 0.1276)

Sorry there are no passes over London.